Juneau, WI

3:12 PM CST on December 12, 2017 (GMT -0600)
Dodge County

Weather History for KUNU - November, 2012

Change the Weather History Date:

Saturday, November 10, 2012

  Actual Average Record
Temperature  
Mean Temperature 53 °F -  
Max Temperature 62 °F 45 °F 64 °F (2010)
Min Temperature 44 °F 32 °F 6 °F (1986)
Degree Days  
Heating Degree Days 12    
Growing Degree Days 3 (Base 50)    
Moisture  
Dew Point 45 °F    
Average Humidity 70    
Maximum Humidity 87    
Minimum Humidity 52    
Precipitation  
Precipitation 0.00 in - - ()
Sea Level Pressure  
Sea Level Pressure 29.88 in    
Wind  
Wind Speed 12 mph (SE)    
Max Wind Speed 26 mph    
Max Gust Speed 31 mph    
Visibility 8 miles    
Events Rain    
Averages and records for this station are not official NWS values.
T = Trace of Precipitation, MM = Missing Value Source: NWS Daily Summary

Daily Weather History Graph

Daily Weather History Graph

Search for Another Location

Airport or City:

Trip Planner

Search our weather history database for the weather conditions in past years. The results will help you decide how hot, cold, wet, or windy it might be!

Date:

Astronomy

Nov. 10, 2012 Rise Set
Actual Time 6:42 AM CST 4:34 PM CST
Civil Twilight 6:11 AM CST 5:05 PM CST
Nautical Twilight 5:37 AM CST 5:39 PM CST
Astronomical Twilight 5:04 AM CST 6:12 PM CST
Moon 2:41 AM CST (11/10) 2:26 PM CST (11/10)
Length of Visible Light 10h 53m
Length of Day
9h 52m
Waning Crescent, 14% of the Moon is Illuminated
Nov 10
Waning Crescent
Nov 13
New
Nov 20
First Quarter
Nov 28
Full
Dec 6
Last Quarter

Hourly Weather History & Observations

Time (CST) Temp. Windchill Dew Point Humidity Pressure Visibility Wind Dir Wind Speed Gust Speed Precip Events Conditions
12:15 AM 44.6 °F 39.7 °F 41.0 °F 87% 30.03 in 4.0 mi ENE 9.2 mph - N/A   Haze
12:35 AM 44.6 °F 39.7 °F 41.0 °F 87% 30.03 in 4.0 mi ENE 9.2 mph - N/A   Haze
12:55 AM 44.6 °F 40.2 °F 41.0 °F 87% 30.03 in 4.0 mi NE 8.1 mph - N/A   Haze
1:15 AM 44.6 °F 39.7 °F 41.0 °F 87% 30.03 in 4.0 mi ENE 9.2 mph - N/A   Haze
1:35 AM 44.6 °F 39.2 °F 39.2 °F 81% 30.01 in 5.0 mi NE 10.4 mph - N/A   Haze
1:55 AM 44.6 °F 40.2 °F 39.2 °F 81% 30.02 in 5.0 mi ENE 8.1 mph - N/A Rain Light Rain
2:15 AM 44.6 °F 40.7 °F 39.2 °F 81% 30.02 in 5.0 mi NE 6.9 mph - N/A   Haze
2:35 AM 44.6 °F 40.2 °F 39.2 °F 81% 30.01 in 5.0 mi ENE 8.1 mph - N/A   Haze
2:55 AM 44.6 °F 41.4 °F 39.2 °F 81% 30.01 in 5.0 mi East 5.8 mph - N/A   Haze
3:15 AM 44.6 °F 39.7 °F 41.0 °F 87% 30.00 in 5.0 mi ENE 9.2 mph - N/A   Haze
3:35 AM 44.6 °F 38.4 °F 41.0 °F 87% 29.97 in 4.0 mi East 12.7 mph - N/A   Haze
3:55 AM 44.6 °F 39.2 °F 41.0 °F 87% 29.97 in 4.0 mi East 10.4 mph - N/A   Haze
4:15 AM 44.6 °F 40.7 °F 41.0 °F 87% 29.98 in 4.0 mi East 6.9 mph - N/A   Overcast
4:35 AM 46.4 °F 41.5 °F 41.0 °F 81% 29.95 in 4.0 mi ENE 10.4 mph - N/A   Haze
4:55 AM 46.4 °F 43.5 °F 41.0 °F 81% 29.96 in 4.0 mi East 5.8 mph - N/A   Haze
5:15 AM 46.4 °F 44.3 °F 41.0 °F 81% 29.97 in 4.0 mi East 4.6 mph - N/A   Haze
5:35 AM 46.4 °F 45.2 °F 41.0 °F 81% 29.97 in 4.0 mi East 3.5 mph - N/A   Haze
6:35 AM 46.4 °F 41.5 °F 42.8 °F 87% 29.94 in 4.0 mi East 10.4 mph - N/A   Haze
6:55 AM 46.4 °F 41.5 °F 42.8 °F 87% 29.94 in 4.0 mi East 10.4 mph - N/A   Overcast
7:15 AM 46.4 °F 42.4 °F 42.8 °F 87% 29.95 in 4.0 mi ESE 8.1 mph - N/A   Overcast
7:35 AM 48.2 °F - 42.8 °F 82% 29.93 in 4.0 mi ESE 10.4 mph - N/A   Haze
7:55 AM 50.0 °F - 42.8 °F 76% 29.92 in 4.0 mi East 9.2 mph - N/A   Haze
8:15 AM 50.0 °F - 42.8 °F 76% 29.94 in 5.0 mi SE 8.1 mph - N/A   Haze
8:35 AM 50.0 °F - 44.6 °F 82% 29.92 in 5.0 mi SE 10.4 mph - N/A   Haze
8:55 AM 51.8 °F - 44.6 °F 76% 29.90 in 7.0 mi ESE 13.8 mph 19.6 mph N/A   Scattered Clouds
9:15 AM 51.8 °F - 44.6 °F 76% 29.90 in 7.0 mi SE 11.5 mph - N/A   Scattered Clouds
9:35 AM 53.6 °F - 46.4 °F 77% 29.90 in 7.0 mi SE 9.2 mph - N/A   Overcast
9:55 AM 55.4 °F - 46.4 °F 72% 29.90 in 7.0 mi SE 10.4 mph - N/A   Overcast
10:15 AM 55.4 °F - 46.4 °F 72% 29.89 in 10.0 mi SE 12.7 mph - N/A   Overcast
10:35 AM 57.2 °F - 46.4 °F 67% 29.88 in 10.0 mi SE 11.5 mph - N/A   Overcast
10:55 AM 59.0 °F - 46.4 °F 63% 29.88 in 10.0 mi SSE 12.7 mph - N/A   Overcast
11:15 AM 59.0 °F - 46.4 °F 63% 29.87 in 10.0 mi SSE 11.5 mph - N/A   Overcast
11:35 AM 59.0 °F - 46.4 °F 63% 29.86 in 10.0 mi SSE 16.1 mph - N/A   Overcast
11:55 AM 60.8 °F - 48.2 °F 63% 29.83 in 10.0 mi SSE 15.0 mph - N/A   Mostly Cloudy
12:15 PM 62.6 °F - 48.2 °F 59% 29.82 in 10.0 mi SSE 15.0 mph 21.9 mph N/A   Scattered Clouds
12:35 PM 62.6 °F - 46.4 °F 55% 29.82 in 10.0 mi South 19.6 mph 24.2 mph N/A   Clear
12:55 PM 62.6 °F - 46.4 °F 55% 29.82 in 10.0 mi South 20.7 mph 27.6 mph N/A   Scattered Clouds
1:15 PM 62.6 °F - 46.4 °F 55% 29.81 in 10.0 mi SSE 20.7 mph 27.6 mph N/A   Scattered Clouds
1:35 PM 62.6 °F - 46.4 °F 55% 29.79 in 10.0 mi South 19.6 mph 28.8 mph N/A   Clear
1:55 PM 62.6 °F - 46.4 °F 55% 29.79 in 10.0 mi South 16.1 mph 23.0 mph N/A   Clear
2:15 PM 62.6 °F - 46.4 °F 55% 29.78 in 10.0 mi South 17.3 mph 24.2 mph N/A   Clear
2:35 PM 62.6 °F - 46.4 °F 55% 29.77 in 10.0 mi South 17.3 mph 21.9 mph N/A   Clear
2:55 PM 62.6 °F - 46.4 °F 55% 29.78 in 10.0 mi South 19.6 mph 27.6 mph N/A   Clear
3:15 PM 62.6 °F - 46.4 °F 55% 29.78 in 10.0 mi South 18.4 mph 28.8 mph N/A   Clear
3:35 PM 62.6 °F - 46.4 °F 55% 29.79 in 10.0 mi South 18.4 mph 25.3 mph N/A   Clear
3:55 PM 62.6 °F - 46.4 °F 55% 29.80 in 10.0 mi South 23.0 mph 31.1 mph N/A   Clear
4:15 PM 60.8 °F - 48.2 °F 63% 29.81 in 10.0 mi South 20.7 mph 25.3 mph N/A   Clear
4:35 PM 60.8 °F - 48.2 °F 63% 29.81 in 10.0 mi South 20.7 mph 29.9 mph N/A   Clear
4:55 PM 60.8 °F - 48.2 °F 63% 29.84 in 10.0 mi South 20.7 mph 25.3 mph N/A   Clear
5:15 PM 60.8 °F - 50.0 °F 68% 29.83 in 10.0 mi South 17.3 mph - N/A   Clear
5:35 PM 60.8 °F - 50.0 °F 68% 29.82 in 10.0 mi South 15.0 mph 24.2 mph N/A   Clear
5:55 PM 60.8 °F - 50.0 °F 68% 29.83 in 10.0 mi South 13.8 mph 21.9 mph N/A   Clear
6:15 PM 60.8 °F - 50.0 °F 68% 29.84 in 10.0 mi South 16.1 mph 24.2 mph N/A   Mostly Cloudy
6:35 PM 60.8 °F - 50.0 °F 68% 29.80 in 10.0 mi SSE 17.3 mph 20.7 mph N/A   Mostly Cloudy
6:55 PM 60.8 °F - 50.0 °F 68% 29.79 in 10.0 mi SSE 15.0 mph 25.3 mph N/A   Mostly Cloudy
7:15 PM 60.8 °F - 51.8 °F 72% 29.80 in 10.0 mi South 16.1 mph - N/A   Scattered Clouds
7:35 PM 60.8 °F - 50.0 °F 68% 29.79 in 10.0 mi SSE 18.4 mph 23.0 mph N/A   Clear
7:55 PM 60.8 °F - 50.0 °F 68% 29.78 in 10.0 mi SSE 18.4 mph 25.3 mph N/A   Clear
8:15 PM 62.6 °F - 48.2 °F 59% 29.80 in 10.0 mi South 18.4 mph 27.6 mph N/A   Clear
8:35 PM 62.6 °F - 46.4 °F 55% 29.80 in 10.0 mi South 26.5 mph - N/A   Clear
8:55 PM 62.6 °F - 44.6 °F 52% 29.81 in 10.0 mi South 18.4 mph 27.6 mph N/A   Clear
9:35 PM 60.8 °F - 42.8 °F 52% 29.81 in 10.0 mi South 20.7 mph 29.9 mph N/A   Clear
10:15 PM 60.8 °F - 44.6 °F 55% 29.78 in 10.0 mi SSE 20.7 mph 28.8 mph N/A   Clear
10:35 PM 60.8 °F - 44.6 °F 55% 29.78 in 10.0 mi South 20.7 mph 27.6 mph N/A   Clear
10:55 PM 60.8 °F - 44.6 °F 55% 29.77 in 10.0 mi SSE 19.6 mph 25.3 mph N/A   Scattered Clouds
11:35 PM 60.8 °F - 44.6 °F 55% 29.80 in 10.0 mi South 21.9 mph 29.9 mph N/A   Clear
11:55 PM 59.0 °F - 44.6 °F 59% 29.82 in 10.0 mi South 17.3 mph 24.2 mph N/A   Clear